Time,TemperatureF,DewpointF,PressureIn,WindDirection,WindDirectionDegrees,WindSpeedMPH,WindSpeedGustMPH,Humidity,HourlyPrecipIn,Conditions,Clouds,dailyrainin,SolarRadiationWatts/m^2,SoftwareType,DateUTC
2013-03-03 00:01:00,54.9,49.8,30.09,East,101,0.0,0.0,83,0.00,CLR,,0.00,0.0,WeatherDisplay:10.37,2013-03-03 08:01:00,
2013-03-03 00:06:00,54.7,49.6,30.09,East,101,1.2,0.0,83,0.00,,,0.00,0.0,WeatherDisplay:10.37,2013-03-03 08:06:00,
2013-03-03 00:11:00,54.6,49.9,30.09,East,101,0.0,0.0,84,0.00,,,0.00,0.0,WeatherDisplay:10.37,2013-03-03 08:11:00,
2013-03-03 00:16:00,54.5,49.8,30.09,East,101,1.2,0.0,84,0.00,,,0.00,0.0,WeatherDisplay:10.37,2013-03-03 08:16:00,
2013-03-03 00:21:00,54.4,49.7,30.10,East,101,0.0,0.0,84,0.00,,,0.00,0.0,WeatherDisplay:10.37,2013-03-03 08:21:00,
2013-03-03 00:26:00,54.4,49.7,30.09,East,101,0.0,0.0,84,0.00,,,0.00,0.0,WeatherDisplay:10.37,2013-03-03 08:26:00,
2013-03-03 00:31:00,54.4,49.7,30.09,East,101,1.2,1.2,84,0.00,,,0.00,0.0,WeatherDisplay:10.37,2013-03-03 08:31:00,
2013-03-03 00:36:00,54.3,49.9,30.09,East,101,1.0,1.0,85,0.00,,,0.00,0.0,WeatherDisplay:10.37,2013-03-03 08:36:00,
2013-03-03 00:41:00,54.2,49.8,30.10,East,101,0.0,0.0,85,0.00,,,0.00,0.0,WeatherDisplay:10.37,2013-03-03 08:41:00,
2013-03-03 00:46:00,54.2,49.8,30.10,East,101,0.0,0.0,85,0.00,,,0.00,0.0,WeatherDisplay:10.37,2013-03-03 08:46:00,
2013-03-03 00:51:00,54.1,49.7,30.09,East,101,1.2,1.2,85,0.00,CLR,,0.00,0.0,WeatherDisplay:10.37,2013-03-03 08:51:00,
2013-03-03 00:56:00,54.1,49.7,30.09,East,101,0.0,0.0,85,0.00,,,0.00,0.0,WeatherDisplay:10.37,2013-03-03 08:56:00,
2013-03-03 01:01:00,54.1,49.7,30.09,East,101,0.0,0.0,85,0.00,,,0.00,0.0,WeatherDisplay:10.37,2013-03-03 09:01:00,
2013-03-03 01:06:00,54.0,49.6,30.09,East,101,0.0,0.0,85,0.00,,,0.00,0.0,WeatherDisplay:10.37,2013-03-03 09:06:00,
2013-03-03 01:11:00,53.9,49.5,30.09,East,101,0.0,0.0,85,0.00,,,0.00,0.0,WeatherDisplay:10.37,2013-03-03 09:11:00,
2013-03-03 01:16:00,53.9,49.5,30.09,East,101,0.0,0.0,85,0.00,,,0.00,0.0,WeatherDisplay:10.37,2013-03-03 09:16:00,
2013-03-03 01:21:00,53.8,49.4,30.09,East,101,1.2,0.0,85,0.00,,,0.00,0.0,WeatherDisplay:10.37,2013-03-03 09:21:00,
2013-03-03 01:26:00,53.7,49.3,30.09,East,101,0.0,0.0,85,0.00,,,0.00,0.0,WeatherDisplay:10.37,2013-03-03 09:26:00,
2013-03-03 01:31:00,53.7,49.3,30.09,East,101,1.2,1.2,85,0.00,,,0.00,0.0,WeatherDisplay:10.37,2013-03-03 09:31:00,
2013-03-03 01:36:00,53.6,49.2,30.09,East,101,0.0,0.0,85,0.00,,,0.00,0.0,WeatherDisplay:10.37,2013-03-03 09:36:00,
2013-03-03 01:41:00,53.5,49.1,30.09,East,101,0.0,0.0,85,0.00,,,0.00,0.0,WeatherDisplay:10.37,2013-03-03 09:41:00,
2013-03-03 01:46:00,53.5,49.1,30.09,East,101,0.0,0.0,85,0.00,,,0.00,0.0,WeatherDisplay:10.37,2013-03-03 09:46:00,
2013-03-03 01:51:00,53.5,49.1,30.09,East,101,0.0,0.0,85,0.00,,,0.00,0.0,WeatherDisplay:10.37,2013-03-03 09:51:00,
2013-03-03 01:56:00,53.4,49.0,30.08,East,101,0.0,0.0,85,0.00,,,0.00,0.0,WeatherDisplay:10.37,2013-03-03 09:56:00,
2013-03-03 02:01:00,53.4,49.0,30.08,East,101,0.0,0.0,85,0.00,,,0.00,0.0,WeatherDisplay:10.37,2013-03-03 10:01:00,
2013-03-03 02:06:00,53.3,48.9,30.08,East,101,0.0,0.0,85,0.00,,,0.00,0.0,WeatherDisplay:10.37,2013-03-03 10:06:00,
2013-03-03 02:11:00,53.3,48.9,30.08,East,101,0.0,0.1,85,0.00,,,0.00,0.0,WeatherDisplay:10.37,2013-03-03 10:11:00,
2013-03-03 02:16:00,53.4,49.3,30.08,East,101,0.0,0.0,86,0.00,CLR,,0.00,0.0,WeatherDisplay:10.37,2013-03-03 10:16:00,
2013-03-03 02:21:00,53.4,49.3,30.08,NNW,331,2.3,0.0,86,0.00,,,0.00,0.0,WeatherDisplay:10.37,2013-03-03 10:21:00,
2013-03-03 02:26:00,53.4,49.3,30.08,NNW,331,0.0,0.0,86,0.00,,,0.00,0.0,WeatherDisplay:10.37,2013-03-03 10:26:00,
2013-03-03 02:31:00,53.4,49.3,30.08,NNW,331,0.0,0.0,86,0.00,,,0.00,0.0,WeatherDisplay:10.37,2013-03-03 10:31:00,
2013-03-03 02:36:00,53.3,49.2,30.07,NNW,331,0.0,0.0,86,0.00,,,0.00,0.0,WeatherDisplay:10.37,2013-03-03 10:36:00,
2013-03-03 02:41:00,53.3,49.2,30.07,NNW,331,1.2,1.2,86,0.00,,,0.00,0.0,WeatherDisplay:10.37,2013-03-03 10:41:00,
2013-03-03 02:46:00,53.3,49.2,30.07,NW,305,3.5,3.5,86,0.00,,,0.00,0.0,WeatherDisplay:10.37,2013-03-03 10:46:00,
2013-03-03 02:51:00,53.3,49.2,30.07,NW,304,0.0,0.0,86,0.00,,,0.00,0.0,WeatherDisplay:10.37,2013-03-03 10:51:00,
2013-03-03 02:56:00,53.3,49.2,30.07,NW,306,1.2,0.0,86,0.00,,,0.00,0.0,WeatherDisplay:10.37,2013-03-03 10:56:00,
2013-03-03 03:01:00,53.3,49.2,30.07,NW,306,0.0,0.0,86,0.00,,,0.00,0.0,WeatherDisplay:10.37,2013-03-03 11:01:00,
2013-03-03 03:06:00,53.3,49.2,30.07,WNW,299,2.0,2.0,86,0.00,,,0.00,0.0,WeatherDisplay:10.37,2013-03-03 11:06:00,
2013-03-03 03:11:00,53.4,49.3,30.07,WNW,299,0.0,0.0,86,0.00,,,0.00,0.0,WeatherDisplay:10.37,2013-03-03 11:11:00,
2013-03-03 03:16:00,53.4,49.3,30.06,WNW,299,0.0,0.0,86,0.00,,,0.00,0.0,WeatherDisplay:10.37,2013-03-03 11:16:00,
2013-03-03 03:21:00,53.4,49.3,30.06,WNW,299,0.0,0.0,86,0.00,,,0.00,0.0,WeatherDisplay:10.37,2013-03-03 11:21:00,
2013-03-03 03:26:00,53.4,49.3,30.06,WNW,299,0.0,0.0,86,0.00,,,0.00,0.0,WeatherDisplay:10.37,2013-03-03 11:26:00,
2013-03-03 03:31:00,53.4,49.3,30.06,WNW,299,0.0,0.0,86,0.00,,,0.00,0.0,WeatherDisplay:10.37,2013-03-03 11:31:00,
2013-03-03 03:36:00,53.4,49.3,30.06,WNW,299,0.0,0.0,86,0.00,,,0.00,0.0,WeatherDisplay:10.37,2013-03-03 11:36:00,
2013-03-03 03:41:00,53.4,49.3,30.06,WNW,299,0.0,0.0,86,0.00,,,0.00,0.0,WeatherDisplay:10.37,2013-03-03 11:41:00,
2013-03-03 03:46:00,53.4,49.3,30.06,WNW,299,0.0,0.0,86,0.00,,,0.00,0.0,WeatherDisplay:10.37,2013-03-03 11:46:00,
2013-03-03 03:51:00,53.4,49.3,30.07,WNW,299,0.0,0.0,86,0.00,,,0.00,0.0,WeatherDisplay:10.37,2013-03-03 11:51:00,
2013-03-03 03:56:00,53.3,49.2,30.06,WNW,299,0.0,0.0,86,0.00,,,0.00,0.0,WeatherDisplay:10.37,2013-03-03 11:56:00,
2013-03-03 04:01:00,53.2,49.1,30.07,WNW,299,2.3,2.3,86,0.00,CLR,,0.00,0.0,WeatherDisplay:10.37,2013-03-03 12:01:00,
2013-03-03 04:06:00,53.2,49.1,30.08,WNW,299,0.0,0.0,86,0.00,,,0.00,0.0,WeatherDisplay:10.37,2013-03-03 12:06:00,
2013-03-03 04:11:00,53.2,49.1,30.08,WNW,299,3.5,3.5,86,0.00,,,0.00,0.0,WeatherDisplay:10.37,2013-03-03 12:11:00,
2013-03-03 04:16:00,53.2,49.1,30.08,WNW,299,2.3,2.3,86,0.00,,,0.00,0.0,WeatherDisplay:10.37,2013-03-03 12:16:00,
2013-03-03 04:21:00,53.1,49.0,30.08,WNW,303,3.5,3.5,86,0.00,,,0.00,0.0,WeatherDisplay:10.37,2013-03-03 12:21:00,
2013-03-03 04:26:00,53.0,48.9,30.08,WNW,303,1.2,0.0,86,0.00,,,0.00,0.0,WeatherDisplay:10.37,2013-03-03 12:26:00,
2013-03-03 04:31:00,52.9,48.8,30.07,WNW,302,1.2,1.2,86,0.00,,,0.00,0.0,WeatherDisplay:10.37,2013-03-03 12:31:00,
2013-03-03 04:36:00,52.9,48.8,30.08,WNW,302,1.2,0.0,86,0.00,CLR,,0.00,0.0,WeatherDisplay:10.37,2013-03-03 12:36:00,
2013-03-03 04:41:00,52.8,48.7,30.07,WNW,302,1.2,1.2,86,0.00,,,0.00,0.0,WeatherDisplay:10.37,2013-03-03 12:41:00,
2013-03-03 04:46:00,52.7,48.9,30.07,WNW,302,0.0,0.0,87,0.00,,,0.00,0.0,WeatherDisplay:10.37,2013-03-03 12:46:00,
2013-03-03 04:51:00,52.7,48.9,30.08,WNW,302,1.2,0.0,87,0.00,,,0.00,0.0,WeatherDisplay:10.37,2013-03-03 12:51:00,
2013-03-03 04:56:00,52.7,48.9,30.08,WNW,302,2.3,0.0,87,0.00,,,0.00,0.0,WeatherDisplay:10.37,2013-03-03 12:56:00,
2013-03-03 05:01:00,52.7,48.9,30.08,WNW,302,1.2,0.0,87,0.00,,,0.00,0.0,WeatherDisplay:10.37,2013-03-03 13:01:00,
2013-03-03 05:06:00,52.5,48.7,30.08,WNW,302,1.2,1.2,87,0.00,,,0.00,0.0,WeatherDisplay:10.37,2013-03-03 13:06:00,
2013-03-03 05:11:00,52.4,48.6,30.07,WNW,302,0.0,0.0,87,0.00,,,0.00,0.0,WeatherDisplay:10.37,2013-03-03 13:11:00,
2013-03-03 05:16:00,52.3,48.2,30.07,WNW,302,1.2,1.2,86,0.00,,,0.00,0.0,WeatherDisplay:10.37,2013-03-03 13:16:00,
2013-03-03 05:21:00,52.2,48.1,30.08,WNW,302,1.2,0.0,86,0.00,,,0.00,0.0,WeatherDisplay:10.37,2013-03-03 13:21:00,
2013-03-03 05:26:00,52.1,48.0,30.08,NNE,18,1.2,1.2,86,0.00,,,0.00,0.0,WeatherDisplay:10.37,2013-03-03 13:26:00,
2013-03-03 05:31:00,52.1,48.3,30.08,North,5,1.2,0.0,87,0.00,,,0.00,0.0,WeatherDisplay:10.37,2013-03-03 13:31:00,
2013-03-03 05:36:00,52.1,48.3,30.08,North,360,1.2,0.0,87,0.00,,,0.00,0.0,WeatherDisplay:10.37,2013-03-03 13:36:00,
2013-03-03 05:41:00,52.1,48.3,30.08,North,360,0.0,0.0,87,0.00,CLR,,0.00,0.0,WeatherDisplay:10.37,2013-03-03 13:41:00,
2013-03-03 05:46:00,52.0,48.3,30.08,North,5,0.0,0.0,87,0.00,,,0.00,0.0,WeatherDisplay:10.37,2013-03-03 13:46:00,
2013-03-03 05:51:00,51.9,48.2,30.08,North,360,0.0,0.0,87,0.00,,,0.00,0.0,WeatherDisplay:10.37,2013-03-03 13:51:00,
2013-03-03 05:56:00,51.8,48.1,30.07,North,360,0.0,0.0,87,0.00,,,0.00,0.0,WeatherDisplay:10.37,2013-03-03 13:56:00,
2013-03-03 06:01:00,51.8,48.1,30.07,North,360,0.0,0.0,87,0.00,,,0.00,0.0,WeatherDisplay:10.37,2013-03-03 14:01:00,
2013-03-03 06:06:00,51.7,48.0,30.08,North,5,0.0,0.0,87,0.00,OVC,,0.00,0.0,WeatherDisplay:10.37,2013-03-03 14:06:00,
2013-03-03 06:11:00,51.7,48.0,30.08,North,5,0.0,0.0,87,0.00,OVC,,0.00,0.0,WeatherDisplay:10.37,2013-03-03 14:11:00,
2013-03-03 06:16:00,51.6,47.9,30.08,North,360,0.0,0.0,87,0.00,OVC,,0.00,0.0,WeatherDisplay:10.37,2013-03-03 14:16:00,
2013-03-03 06:21:00,51.5,47.8,30.08,North,360,0.0,0.0,87,0.00,OVC,,0.00,0.0,WeatherDisplay:10.37,2013-03-03 14:21:00,
2013-03-03 06:26:00,51.5,47.8,30.08,North,5,0.0,0.0,87,0.00,OVC,,0.00,0.0,WeatherDisplay:10.37,2013-03-03 14:26:00,
2013-03-03 06:31:00,51.4,47.7,30.08,North,360,0.0,0.0,87,0.00,OVC,,0.00,0.0,WeatherDisplay:10.37,2013-03-03 14:31:00,
2013-03-03 06:36:00,51.3,47.6,30.08,North,5,0.0,0.0,87,0.00,OVC,,0.00,0.0,WeatherDisplay:10.37,2013-03-03 14:36:00,
2013-03-03 06:41:00,51.2,47.5,30.08,North,5,0.0,0.0,87,0.00,OVC,,0.00,5.0,WeatherDisplay:10.37,2013-03-03 14:41:00,
2013-03-03 06:46:00,51.2,47.5,30.08,North,5,0.0,0.0,87,0.00,SCT,,0.00,7.0,WeatherDisplay:10.37,2013-03-03 14:46:00,
2013-03-03 06:51:00,51.1,47.4,30.08,North,5,0.0,0.0,87,0.00,SCT,,0.00,12.0,WeatherDisplay:10.37,2013-03-03 14:51:00,
2013-03-03 06:56:00,51.2,47.5,30.09,North,360,0.0,0.0,87,0.00,SCT,,0.00,18.0,WeatherDisplay:10.37,2013-03-03 14:56:00,
2013-03-03 07:01:00,51.2,47.5,30.09,North,5,0.0,0.0,87,0.00,BKN,,0.00,19.0,WeatherDisplay:10.37,2013-03-03 15:01:00,
2013-03-03 07:06:00,51.2,47.8,30.09,North,360,0.0,0.0,88,0.00,BKN,,0.00,25.0,WeatherDisplay:10.37,2013-03-03 15:06:00,
2013-03-03 07:11:00,51.2,47.8,30.09,North,360,0.0,0.0,88,0.00,BKN,,0.00,30.0,WeatherDisplay:10.37,2013-03-03 15:11:00,
2013-03-03 07:16:00,51.2,47.8,30.09,North,360,0.0,0.0,88,0.00,BKN,,0.00,37.0,WeatherDisplay:10.37,2013-03-03 15:16:00,
2013-03-03 07:21:00,51.4,48.0,30.09,North,5,0.0,0.0,88,0.00,SCT,,0.00,46.0,WeatherDisplay:10.37,2013-03-03 15:21:00,
2013-03-03 07:26:00,51.6,48.2,30.09,North,5,0.0,0.0,88,0.00,SCT,,0.00,56.0,WeatherDisplay:10.37,2013-03-03 15:26:00,
2013-03-03 07:31:00,51.8,48.4,30.09,North,360,0.0,0.0,88,0.00,SCT,,0.00,65.0,WeatherDisplay:10.37,2013-03-03 15:31:00,
2013-03-03 07:36:00,51.9,48.5,30.10,North,5,0.0,0.0,88,0.00,SCT,,0.00,67.0,WeatherDisplay:10.37,2013-03-03 15:36:00,
2013-03-03 07:41:00,52.1,48.7,30.10,North,5,0.0,0.0,88,0.00,SCT,,0.00,54.0,WeatherDisplay:10.37,2013-03-03 15:41:00,
2013-03-03 07:46:00,52.2,48.8,30.10,North,5,0.0,0.0,88,0.00,BKN,,0.00,65.0,WeatherDisplay:10.37,2013-03-03 15:46:00,
2013-03-03 07:51:00,52.4,48.9,30.09,North,5,0.0,0.0,88,0.00,BKN,,0.00,84.0,WeatherDisplay:10.37,2013-03-03 15:51:00,
2013-03-03 07:56:00,52.4,48.9,30.09,North,5,0.0,0.2,88,0.00,BKN,,0.00,83.0,WeatherDisplay:10.37,2013-03-03 15:56:00,
2013-03-03 08:01:00,52.4,48.9,30.10,North,5,1.0,1.0,88,0.00,BKN,,0.00,83.0,WeatherDisplay:10.37,2013-03-03 16:01:00,
2013-03-03 08:06:00,52.5,49.0,30.10,North,5,0.0,0.0,88,0.00,BKN,,0.00,104.0,WeatherDisplay:10.37,2013-03-03 16:06:00,
2013-03-03 08:11:00,52.6,49.1,30.10,North,360,0.0,0.0,88,0.00,SCT,,0.00,120.0,WeatherDisplay:10.37,2013-03-03 16:11:00,
2013-03-03 08:16:00,52.8,49.3,30.10,North,5,0.0,0.0,88,0.00,SCT,,0.00,127.0,WeatherDisplay:10.37,2013-03-03 16:16:00,
2013-03-03 08:21:00,52.9,49.4,30.10,North,5,0.0,0.0,88,0.00,SCT,,0.00,135.0,WeatherDisplay:10.37,2013-03-03 16:21:00,
2013-03-03 08:26:00,53.1,49.3,30.09,North,5,1.2,0.0,87,0.00,SCT,,0.00,144.0,WeatherDisplay:10.37,2013-03-03 16:26:00,
2013-03-03 08:31:00,53.2,49.4,30.10,North,5,0.0,0.0,87,0.00,SCT,,0.00,151.0,WeatherDisplay:10.37,2013-03-03 16:31:00,
2013-03-03 08:36:00,53.3,49.5,30.10,North,5,1.0,1.0,87,0.00,SCT,,0.00,156.0,WeatherDisplay:10.37,2013-03-03 16:36:00,
2013-03-03 08:41:00,53.5,49.4,30.10,North,5,2.3,2.3,86,0.00,SCT,,0.00,178.0,WeatherDisplay:10.37,2013-03-03 16:41:00,
2013-03-03 08:46:00,53.9,49.5,30.10,North,360,1.2,1.2,85,0.00,SCT,,0.00,172.0,WeatherDisplay:10.37,2013-03-03 16:46:00,
2013-03-03 08:51:00,54.4,50.0,30.10,North,5,0.0,0.0,85,0.00,SCT,,0.00,190.0,WeatherDisplay:10.37,2013-03-03 16:51:00,
2013-03-03 08:56:00,54.8,49.7,30.10,SSW,206,1.2,0.0,83,0.00,SCT,,0.00,172.0,WeatherDisplay:10.37,2013-03-03 16:56:00,
2013-03-03 09:01:00,55.3,49.9,30.10,East,94,2.3,2.3,82,0.00,SCT,,0.00,278.0,WeatherDisplay:10.37,2013-03-03 17:01:00,
2013-03-03 09:06:00,56.1,50.3,30.09,SSE,152,1.0,1.0,81,0.00,CLR,,0.00,439.0,WeatherDisplay:10.37,2013-03-03 17:06:00,
2013-03-03 09:11:00,57.1,50.3,30.09,SSE,158,2.3,2.3,78,0.00,CLR,,0.00,452.0,WeatherDisplay:10.37,2013-03-03 17:11:00,
2013-03-03 09:16:00,57.6,50.4,30.09,NNE,26,2.3,2.3,77,0.00,CLR,,0.00,499.0,WeatherDisplay:10.37,2013-03-03 17:16:00,
2013-03-03 09:21:00,57.8,50.3,30.10,ESE,111,2.3,2.3,76,0.00,CLR,,0.00,598.0,WeatherDisplay:10.37,2013-03-03 17:21:00,
2013-03-03 09:26:00,58.0,50.1,30.10,ESE,115,0.0,0.3,75,0.00,CLR,,0.00,287.0,WeatherDisplay:10.37,2013-03-03 17:26:00,
2013-03-03 09:31:00,57.6,50.1,30.10,East,92,2.3,2.3,76,0.00,FEW,,0.00,171.0,WeatherDisplay:10.37,2013-03-03 17:31:00,
2013-03-03 09:36:00,57.2,50.1,30.10,East,89,1.2,0.0,77,0.00,BKN,,0.00,139.0,WeatherDisplay:10.37,2013-03-03 17:36:00,
2013-03-03 09:41:00,57.1,50.3,30.10,East,88,1.2,1.2,78,0.00,BKN,,0.00,137.0,WeatherDisplay:10.37,2013-03-03 17:41:00,
2013-03-03 09:46:00,56.8,50.0,30.10,East,87,2.3,2.3,78,0.00,BKN,,0.00,132.0,WeatherDisplay:10.37,2013-03-03 17:46:00,
2013-03-03 09:51:00,56.6,49.8,30.10,East,89,1.2,1.2,78,0.00,BKN,,0.00,148.0,WeatherDisplay:10.37,2013-03-03 17:51:00,
2013-03-03 09:56:00,56.5,50.1,30.10,East,88,1.2,1.2,79,0.00,BKN,,0.00,162.0,WeatherDisplay:10.37,2013-03-03 17:56:00,
2013-03-03 10:01:00,56.4,50.0,30.10,East,91,2.3,2.3,79,0.00,BKN,,0.00,200.0,WeatherDisplay:10.37,2013-03-03 18:01:00,
2013-03-03 10:06:00,56.2,49.8,30.10,ENE,72,2.3,2.3,79,0.00,BKN,,0.00,199.0,WeatherDisplay:10.37,2013-03-03 18:06:00,
2013-03-03 10:11:00,56.2,49.8,30.11,East,90,2.3,2.3,79,0.00,BKN,,0.00,190.0,WeatherDisplay:10.37,2013-03-03 18:11:00,
2013-03-03 10:16:00,56.2,49.8,30.10,East,91,1.2,1.2,79,0.00,BKN,,0.00,250.0,WeatherDisplay:10.37,2013-03-03 18:16:00,
2013-03-03 10:21:00,56.9,50.5,30.10,East,90,2.3,2.3,79,0.00,BKN,,0.00,299.0,WeatherDisplay:10.37,2013-03-03 18:21:00,
2013-03-03 10:26:00,57.1,50.6,30.10,East,94,0.0,0.0,79,0.00,SCT,,0.00,301.0,WeatherDisplay:10.37,2013-03-03 18:26:00,
2013-03-03 10:31:00,57.1,50.0,30.10,East,85,1.2,0.0,77,0.00,SCT,,0.00,309.0,WeatherDisplay:10.37,2013-03-03 18:31:00,
2013-03-03 10:36:00,57.4,50.6,30.10,East,86,1.2,1.2,78,0.00,SCT,,0.00,346.0,WeatherDisplay:10.37,2013-03-03 18:36:00,
2013-03-03 10:41:00,57.7,50.5,30.09,East,99,2.3,2.3,77,0.00,SCT,,0.00,343.0,WeatherDisplay:10.37,2013-03-03 18:41:00,
2013-03-03 10:46:00,58.2,50.7,30.09,ESE,103,1.2,0.0,76,0.00,SCT,,0.00,394.0,WeatherDisplay:10.37,2013-03-03 18:46:00,
2013-03-03 10:51:00,59.0,51.1,30.09,East,79,2.3,2.3,75,0.00,SCT,,0.00,526.0,WeatherDisplay:10.37,2013-03-03 18:51:00,
2013-03-03 10:56:00,59.8,51.1,30.09,NE,46,2.3,2.3,73,0.00,FEW,,0.00,867.0,WeatherDisplay:10.37,2013-03-03 18:56:00,
2013-03-03 11:01:00,60.4,51.0,30.10,ENE,67,2.3,2.3,71,0.00,CLR,,0.00,679.0,WeatherDisplay:10.37,2013-03-03 19:01:00,
2013-03-03 11:06:00,60.8,51.3,30.10,West,271,1.2,1.2,71,0.00,CLR,,0.00,816.0,WeatherDisplay:10.37,2013-03-03 19:06:00,
2013-03-03 11:11:00,61.3,51.4,30.09,East,92,2.3,2.3,70,0.00,CLR,,0.00,737.0,WeatherDisplay:10.37,2013-03-03 19:11:00,
2013-03-03 11:16:00,62.2,51.5,30.09,NNE,22,1.2,1.2,68,0.00,CLR,,0.00,635.0,WeatherDisplay:10.37,2013-03-03 19:16:00,
2013-03-03 11:21:00,62.5,51.0,30.09,NNE,22,1.2,1.2,66,0.00,CLR,,0.00,722.0,WeatherDisplay:10.37,2013-03-03 19:21:00,
2013-03-03 11:26:00,62.5,51.8,30.09,ENE,61,3.5,3.5,68,0.00,CLR,,0.00,728.0,WeatherDisplay:10.37,2013-03-03 19:26:00,
2013-03-03 11:31:00,63.1,52.0,30.09,East,90,4.6,4.6,67,0.00,CLR,,0.00,724.0,WeatherDisplay:10.37,2013-03-03 19:31:00,
2013-03-03 11:36:00,62.9,51.8,30.09,NE,45,1.2,1.2,67,0.00,CLR,,0.00,740.0,WeatherDisplay:10.37,2013-03-03 19:36:00,
2013-03-03 11:41:00,63.0,51.0,30.09,East,91,3.5,3.5,65,0.00,CLR,,0.00,773.0,WeatherDisplay:10.37,2013-03-03 19:41:00,
2013-03-03 11:46:00,63.3,51.3,30.09,East,98,2.3,2.3,65,0.00,CLR,,0.00,826.0,WeatherDisplay:10.37,2013-03-03 19:46:00,
2013-03-03 11:51:00,64.3,51.4,30.09,NNE,32,3.5,3.5,63,0.00,CLR,,0.00,812.0,WeatherDisplay:10.37,2013-03-03 19:51:00,
2013-03-03 11:56:00,62.7,50.3,30.08,NNE,17,2.3,2.3,64,0.00,CLR,,0.00,492.0,WeatherDisplay:10.37,2013-03-03 19:56:00,
2013-03-03 12:01:00,62.9,51.0,30.08,ENE,68,3.5,3.5,65,0.00,CLR,,0.00,459.0,WeatherDisplay:10.37,2013-03-03 20:01:00,
2013-03-03 12:06:00,62.3,50.8,30.08,WNW,294,4.6,4.6,66,0.00,FEW,,0.00,506.0,WeatherDisplay:10.37,2013-03-03 20:06:00,
2013-03-03 12:12:00,62.4,50.9,30.08,ENE,71,1.2,1.2,66,0.00,CLR,,0.00,726.0,WeatherDisplay:10.37,2013-03-03 20:12:00,
2013-03-03 12:17:00,62.2,51.1,30.07,North,355,2.3,2.3,67,0.00,CLR,,0.00,802.0,WeatherDisplay:10.37,2013-03-03 20:17:00,
2013-03-03 12:22:00,62.6,51.5,30.07,NE,34,3.5,3.5,67,0.00,CLR,,0.00,826.0,WeatherDisplay:10.37,2013-03-03 20:22:00,
2013-03-03 12:27:00,62.8,51.3,30.07,NNW,348,5.8,5.8,66,0.00,CLR,,0.00,791.0,WeatherDisplay:10.37,2013-03-03 20:27:00,
2013-03-03 12:32:00,62.9,50.5,30.07,NNW,340,2.3,2.3,64,0.00,CLR,,0.00,765.0,WeatherDisplay:10.37,2013-03-03 20:32:00,
2013-03-03 12:37:00,63.0,51.0,30.07,North,355,2.3,2.3,65,0.00,CLR,,0.00,744.0,WeatherDisplay:10.37,2013-03-03 20:37:00,
2013-03-03 12:42:00,62.7,50.3,30.07,ENE,71,3.5,3.5,64,0.00,CLR,,0.00,729.0,WeatherDisplay:10.37,2013-03-03 20:42:00,
2013-03-03 12:47:00,62.4,50.9,30.06,NNE,21,3.5,3.5,66,0.00,CLR,,0.00,729.0,WeatherDisplay:10.37,2013-03-03 20:47:00,
2013-03-03 12:52:00,62.5,50.6,30.06,NW,307,8.1,8.1,65,0.00,CLR,,0.00,728.0,WeatherDisplay:10.37,2013-03-03 20:52:00,
2013-03-03 12:57:00,62.5,51.4,30.06,NNE,18,2.3,2.3,67,0.00,CLR,,0.00,729.0,WeatherDisplay:10.37,2013-03-03 20:57:00,
2013-03-03 13:02:00,62.9,51.0,30.06,NW,326,7.0,7.0,65,0.00,CLR,,0.00,726.0,WeatherDisplay:10.37,2013-03-03 21:02:00,
2013-03-03 13:07:00,62.7,51.6,30.06,NE,36,3.5,3.5,67,0.00,CLR,,0.00,721.0,WeatherDisplay:10.37,2013-03-03 21:07:00,
2013-03-03 13:12:00,62.8,51.7,30.06,NE,34,3.5,3.5,67,0.00,CLR,,0.00,719.0,WeatherDisplay:10.37,2013-03-03 21:12:00,
2013-03-03 13:17:00,63.7,52.1,30.05,NNE,26,2.3,2.3,66,0.00,CLR,,0.00,731.0,WeatherDisplay:10.37,2013-03-03 21:17:00,
2013-03-03 13:22:00,64.6,51.7,30.05,NE,46,1.2,1.2,63,0.00,CLR,,0.00,772.0,WeatherDisplay:10.37,2013-03-03 21:22:00,
2013-03-03 13:27:00,64.0,50.3,30.05,NW,308,1.2,1.2,61,0.00,CLR,,0.00,162.0,WeatherDisplay:10.37,2013-03-03 21:27:00,
2013-03-03 13:32:00,63.1,49.9,30.05,NNW,339,3.5,3.5,62,0.00,SCT,,0.00,267.0,WeatherDisplay:10.37,2013-03-03 21:32:00,
2013-03-03 13:37:00,63.7,50.9,30.05,NE,51,2.3,2.3,63,0.00,SCT,,0.00,220.0,WeatherDisplay:10.37,2013-03-03 21:37:00,
2013-03-03 13:42:00,64.1,50.4,30.05,ENE,59,2.3,2.3,61,0.00,SCT,,0.00,234.0,WeatherDisplay:10.37,2013-03-03 21:42:00,
2013-03-03 13:47:00,63.6,49.5,30.05,NW,317,8.1,8.1,60,0.00,BKN,,0.00,167.0,WeatherDisplay:10.37,2013-03-03 21:47:00,
2013-03-03 13:52:00,62.9,48.8,30.05,WNW,296,4.6,4.6,60,0.00,BKN,,0.00,221.0,WeatherDisplay:10.37,2013-03-03 21:52:00,
2013-03-03 13:57:00,62.7,48.6,30.05,WNW,302,2.3,2.3,60,0.00,BKN,,0.00,253.0,WeatherDisplay:10.37,2013-03-03 21:57:00,
2013-03-03 14:02:00,64.2,46.2,30.05,NNW,330,8.1,8.1,52,0.00,FEW,,0.00,744.0,WeatherDisplay:10.37,2013-03-03 22:02:00,
2013-03-03 14:07:00,65.4,46.3,30.05,NW,305,4.0,4.0,50,0.00,CLR,,0.00,659.0,WeatherDisplay:10.37,2013-03-03 22:07:00,
2013-03-03 14:12:00,64.4,45.3,30.05,WNW,296,11.5,11.5,50,0.00,CLR,,0.00,642.0,WeatherDisplay:10.37,2013-03-03 22:12:00,
2013-03-03 14:17:00,64.0,45.0,30.04,West,273,9.2,9.2,50,0.00,CLR,,0.00,626.0,WeatherDisplay:10.37,2013-03-03 22:17:00,
2013-03-03 14:22:00,64.2,45.2,30.04,NW,313,8.1,8.1,50,0.00,CLR,,0.00,622.0,WeatherDisplay:10.37,2013-03-03 22:22:00,
2013-03-03 14:27:00,64.0,45.0,30.04,WNW,294,11.5,11.5,50,0.00,CLR,,0.00,612.0,WeatherDisplay:10.37,2013-03-03 22:27:00,
2013-03-03 14:32:00,64.7,45.6,30.04,NW,305,6.9,6.9,50,0.00,CLR,,0.00,598.0,WeatherDisplay:10.37,2013-03-03 22:32:00,
2013-03-03 14:37:00,64.9,45.8,30.04,NW,319,8.0,8.0,50,0.00,CLR,,0.00,585.0,WeatherDisplay:10.37,2013-03-03 22:37:00,
2013-03-03 14:42:00,64.5,46.0,30.04,NW,311,4.6,4.6,51,0.00,CLR,,0.00,571.0,WeatherDisplay:10.37,2013-03-03 22:42:00,
2013-03-03 14:47:00,64.3,45.8,30.04,WNW,299,6.9,6.9,51,0.00,CLR,,0.00,559.0,WeatherDisplay:10.37,2013-03-03 22:47:00,
2013-03-03 14:52:00,64.4,45.3,30.04,NW,321,9.2,9.2,50,0.00,CLR,,0.00,548.0,WeatherDisplay:10.37,2013-03-03 22:52:00,
2013-03-03 14:57:00,64.2,45.2,30.04,NW,311,9.2,9.2,50,0.00,CLR,,0.00,533.0,WeatherDisplay:10.37,2013-03-03 22:57:00,
2013-03-03 15:02:00,65.0,45.9,30.03,NW,313,6.9,6.9,50,0.00,CLR,,0.00,520.0,WeatherDisplay:10.37,2013-03-03 23:02:00,
2013-03-03 15:07:00,64.9,45.8,30.04,WNW,296,4.6,4.6,50,0.00,CLR,,0.00,510.0,WeatherDisplay:10.37,2013-03-03 23:07:00,
2013-03-03 15:12:00,65.3,46.2,30.04,NNW,334,5.8,5.8,50,0.00,CLR,,0.00,497.0,WeatherDisplay:10.37,2013-03-03 23:12:00,
2013-03-03 15:17:00,64.6,46.1,30.03,NNW,340,3.5,3.5,51,0.00,CLR,,0.00,483.0,WeatherDisplay:10.37,2013-03-03 23:17:00,
2013-03-03 15:22:00,64.6,46.1,30.03,WNW,302,9.2,9.2,51,0.00,CLR,,0.00,471.0,WeatherDisplay:10.37,2013-03-03 23:22:00,
2013-03-03 15:27:00,64.1,46.1,30.03,NE,44,3.5,3.5,52,0.00,CLR,,0.00,457.0,WeatherDisplay:10.37,2013-03-03 23:27:00,
2013-03-03 15:32:00,64.3,45.8,30.03,NW,317,4.6,4.6,51,0.00,CLR,,0.00,439.0,WeatherDisplay:10.37,2013-03-03 23:32:00,
2013-03-03 15:37:00,64.4,45.3,30.03,NNW,330,5.0,5.0,50,0.00,CLR,,0.00,401.0,WeatherDisplay:10.37,2013-03-03 23:37:00,
2013-03-03 15:42:00,64.7,45.6,30.03,North,10,4.6,4.6,50,0.00,CLR,,0.00,56.0,WeatherDisplay:10.37,2013-03-03 23:42:00,
2013-03-03 15:47:00,64.1,45.1,30.03,NW,323,8.0,8.0,50,0.00,SCT,,0.00,58.0,WeatherDisplay:10.37,2013-03-03 23:47:00,
2013-03-03 15:52:00,63.2,45.3,30.03,NNE,24,8.1,8.1,52,0.00,BKN,,0.00,56.0,WeatherDisplay:10.37,2013-03-03 23:52:00,
2013-03-03 15:57:00,62.6,45.7,30.03,WNW,301,6.9,6.9,54,0.00,BKN,,0.00,58.0,WeatherDisplay:10.37,2013-03-03 23:57:00,
2013-03-03 16:02:00,61.9,46.0,30.03,NW,317,8.1,8.1,56,0.00,BKN,,0.00,350.0,WeatherDisplay:10.37,2013-03-04 00:02:00,
2013-03-03 16:07:00,61.4,46.5,30.03,WNW,284,8.1,8.1,58,0.00,FEW,,0.00,322.0,WeatherDisplay:10.37,2013-03-04 00:07:00,
2013-03-03 16:12:00,61.1,46.2,30.03,NW,304,9.2,9.2,58,0.00,CLR,,0.00,302.0,WeatherDisplay:10.37,2013-03-04 00:12:00,
2013-03-03 16:17:00,61.2,47.2,30.03,NNW,337,3.5,3.5,60,0.00,CLR,,0.00,267.0,WeatherDisplay:10.37,2013-03-04 00:17:00,
2013-03-03 16:22:00,60.9,47.4,30.03,NNW,333,4.6,4.6,61,0.00,FEW,,0.00,269.0,WeatherDisplay:10.37,2013-03-04 00:22:00,
2013-03-03 16:27:00,60.4,47.3,30.03,WNW,300,8.1,8.1,62,0.00,CLR,,0.00,258.0,WeatherDisplay:10.37,2013-03-04 00:27:00,
2013-03-03 16:32:00,59.9,46.8,30.03,NNW,334,4.6,4.6,62,0.00,CLR,,0.00,237.0,WeatherDisplay:10.37,2013-03-04 00:32:00,
2013-03-03 16:37:00,59.7,46.7,30.03,NNW,327,6.0,6.0,62,0.00,CLR,,0.00,221.0,WeatherDisplay:10.37,2013-03-04 00:37:00,
2013-03-03 16:42:00,59.0,46.0,30.03,NNW,327,4.6,4.6,62,0.00,CLR,,0.00,213.0,WeatherDisplay:10.37,2013-03-04 00:42:00,
2013-03-03 16:47:00,58.3,46.2,30.03,West,279,11.5,11.5,64,0.00,FEW,,0.00,44.0,WeatherDisplay:10.37,2013-03-04 00:47:00,
2013-03-03 16:52:00,57.7,46.8,30.03,NW,310,4.0,4.0,67,0.00,BKN,,0.00,40.0,WeatherDisplay:10.37,2013-03-04 00:52:00,
2013-03-03 16:57:00,57.4,46.9,30.04,NNW,346,6.9,6.9,68,0.00,BKN,,0.00,39.0,WeatherDisplay:10.37,2013-03-04 00:57:00,
2013-03-03 17:02:00,56.9,46.8,30.04,NNW,327,4.6,4.6,69,0.00,BKN,,0.00,37.0,WeatherDisplay:10.37,2013-03-04 01:02:00,
2013-03-03 17:07:00,56.6,46.9,30.04,NNW,336,3.5,3.5,70,0.00,BKN,,0.00,35.0,WeatherDisplay:10.37,2013-03-04 01:07:00,
2013-03-03 17:12:00,56.2,46.5,30.04,NNW,336,4.6,4.6,70,0.00,BKN,,0.00,33.0,WeatherDisplay:10.37,2013-03-04 01:12:00,
2013-03-03 17:17:00,55.9,46.6,30.04,East,86,2.3,2.3,71,0.00,BKN,,0.00,32.0,WeatherDisplay:10.37,2013-03-04 01:17:00,
2013-03-03 17:22:00,55.5,46.6,30.04,NNW,327,2.3,2.3,72,0.00,BKN,,0.00,30.0,WeatherDisplay:10.37,2013-03-04 01:22:00,
2013-03-03 17:27:00,55.1,46.2,30.04,NNW,348,1.2,1.2,72,0.00,BKN,,0.00,26.0,WeatherDisplay:10.37,2013-03-04 01:27:00,
2013-03-03 17:32:00,54.6,46.1,30.04,West,279,4.6,4.6,73,0.00,BKN,,0.00,25.0,WeatherDisplay:10.37,2013-03-04 01:32:00,
2013-03-03 17:37:00,54.1,46.0,30.05,NW,325,6.0,6.0,74,0.00,BKN,,0.00,21.0,WeatherDisplay:10.37,2013-03-04 01:37:00,
2013-03-03 17:42:00,53.7,46.0,30.05,West,274,5.0,5.0,75,0.00,BKN,,0.00,19.0,WeatherDisplay:10.37,2013-03-04 01:42:00,
2013-03-03 17:47:00,53.6,46.2,30.05,NW,321,3.5,3.5,76,0.00,BKN,,0.00,16.0,WeatherDisplay:10.37,2013-03-04 01:47:00,
2013-03-03 17:52:00,53.3,45.9,30.05,WNW,299,3.5,3.5,76,0.00,SCT,,0.00,12.0,WeatherDisplay:10.37,2013-03-04 01:52:00,
2013-03-03 17:57:00,53.0,46.0,30.05,WNW,287,7.0,7.0,77,0.00,SCT,,0.00,9.0,WeatherDisplay:10.37,2013-03-04 01:57:00,
2013-03-03 18:02:00,52.7,45.7,30.05,NW,315,3.5,3.5,77,0.00,CLR,,0.00,5.0,WeatherDisplay:10.37,2013-03-04 02:02:00,
2013-03-03 18:07:00,52.5,45.5,30.05,NW,304,1.2,1.2,77,0.00,OVC,,0.00,0.0,WeatherDisplay:10.37,2013-03-04 02:07:00,
2013-03-03 18:12:00,52.3,45.6,30.05,NW,311,4.6,4.6,78,0.00,OVC,,0.00,0.0,WeatherDisplay:10.37,2013-03-04 02:12:00,
2013-03-03 18:17:00,52.1,45.4,30.05,WNW,296,3.5,3.5,78,0.00,OVC,,0.00,0.0,WeatherDisplay:10.37,2013-03-04 02:17:00,
2013-03-03 18:22:00,52.0,45.4,30.06,WNW,292,6.9,6.9,78,0.00,OVC,,0.00,0.0,WeatherDisplay:10.37,2013-03-04 02:22:00,
2013-03-03 18:27:00,51.8,45.2,30.06,WNW,302,5.0,5.0,78,0.00,OVC,,0.00,0.0,WeatherDisplay:10.37,2013-03-04 02:27:00,
2013-03-03 18:32:00,51.7,45.4,30.06,WNW,298,2.3,2.3,79,0.00,OVC,,0.00,0.0,WeatherDisplay:10.37,2013-03-04 02:32:00,
2013-03-03 18:37:00,51.6,45.3,30.06,WNW,298,1.2,1.2,79,0.00,,,0.00,0.0,WeatherDisplay:10.37,2013-03-04 02:37:00,
2013-03-03 18:42:00,51.5,45.2,30.06,WNW,298,1.2,0.0,79,0.00,,,0.00,0.0,WeatherDisplay:10.37,2013-03-04 02:42:00,
2013-03-03 18:47:00,51.4,45.1,30.06,WNW,298,0.0,0.0,79,0.00,,,0.00,0.0,WeatherDisplay:10.37,2013-03-04 02:47:00,
2013-03-03 18:52:00,51.2,44.9,30.07,WNW,298,1.2,0.0,79,0.00,,,0.00,0.0,WeatherDisplay:10.37,2013-03-04 02:52:00,
2013-03-03 18:57:00,51.1,44.8,30.07,WNW,298,0.0,0.0,79,0.00,,,0.00,0.0,WeatherDisplay:10.37,2013-03-04 02:57:00,
2013-03-03 19:02:00,51.0,45.0,30.07,WNW,298,1.2,1.2,80,0.00,CLR,,0.00,0.0,WeatherDisplay:10.37,2013-03-04 03:02:00,
2013-03-03 19:07:00,50.9,44.9,30.07,WNW,298,1.2,1.2,80,0.00,CLR,,0.00,0.0,WeatherDisplay:10.37,2013-03-04 03:07:00,
2013-03-03 19:12:00,50.8,44.9,30.07,WNW,298,0.0,0.0,80,0.00,CLR,,0.00,0.0,WeatherDisplay:10.37,2013-03-04 03:12:00,
2013-03-03 19:17:00,50.7,44.8,30.07,WNW,298,0.0,0.0,80,0.00,CLR,,0.00,0.0,WeatherDisplay:10.37,2013-03-04 03:17:00,
2013-03-03 19:22:00,50.5,44.9,30.07,WNW,298,0.0,0.0,81,0.00,CLR,,0.00,0.0,WeatherDisplay:10.37,2013-03-04 03:22:00,
2013-03-03 19:27:00,50.5,44.9,30.07,WNW,298,0.0,0.0,81,0.00,CLR,,0.00,0.0,WeatherDisplay:10.37,2013-03-04 03:27:00,
2013-03-03 19:32:00,50.4,44.8,30.08,WNW,298,0.0,0.0,81,0.00,CLR,,0.00,0.0,WeatherDisplay:10.37,2013-03-04 03:32:00,
2013-03-03 19:37:00,50.3,44.7,30.08,WNW,298,0.0,0.0,81,0.00,CLR,,0.00,0.0,WeatherDisplay:10.37,2013-03-04 03:37:00,
2013-03-03 19:42:00,50.2,44.6,30.08,WNW,298,0.0,0.0,81,0.00,CLR,,0.00,0.0,WeatherDisplay:10.37,2013-03-04 03:42:00,
2013-03-03 19:47:00,50.1,44.8,30.08,WNW,298,0.0,0.0,82,0.00,CLR,,0.00,0.0,WeatherDisplay:10.37,2013-03-04 03:47:00,
2013-03-03 19:52:00,50.1,44.8,30.08,WNW,298,0.0,0.0,82,0.00,CLR,,0.00,0.0,WeatherDisplay:10.37,2013-03-04 03:52:00,
2013-03-03 19:57:00,49.9,44.6,30.08,WNW,298,0.0,0.0,82,0.00,CLR,,0.00,0.0,WeatherDisplay:10.37,2013-03-04 03:57:00,
2013-03-03 20:02:00,49.8,44.5,30.08,WNW,298,0.0,0.0,82,0.00,CLR,,0.00,0.0,WeatherDisplay:10.37,2013-03-04 04:02:00,
2013-03-03 20:07:00,49.6,44.3,30.08,WNW,298,0.0,0.0,82,0.00,CLR,,0.00,0.0,WeatherDisplay:10.37,2013-03-04 04:07:00,
2013-03-03 20:12:00,49.5,44.2,30.08,WNW,298,0.0,0.0,82,0.00,CLR,,0.00,0.0,WeatherDisplay:10.37,2013-03-04 04:12:00,
2013-03-03 20:17:00,49.4,44.5,30.08,WNW,298,2.3,2.3,83,0.00,CLR,,0.00,0.0,WeatherDisplay:10.37,2013-03-04 04:17:00,
2013-03-03 20:22:00,49.3,44.4,30.08,WNW,298,1.2,0.0,83,0.00,CLR,,0.00,0.0,WeatherDisplay:10.37,2013-03-04 04:22:00,
2013-03-03 20:27:00,49.2,44.3,30.08,WNW,298,0.0,0.0,83,0.00,CLR,,0.00,0.0,WeatherDisplay:10.37,2013-03-04 04:27:00,
2013-03-03 20:32:00,49.1,44.2,30.08,WNW,298,0.0,0.0,83,0.00,CLR,,0.00,0.0,WeatherDisplay:10.37,2013-03-04 04:32:00,
2013-03-03 20:37:00,48.9,44.0,30.08,WNW,298,0.0,0.0,83,0.00,CLR,,0.00,0.0,WeatherDisplay:10.37,2013-03-04 04:37:00,
2013-03-03 20:42:00,48.7,43.8,30.08,WNW,298,0.0,0.0,83,0.00,CLR,,0.00,0.0,WeatherDisplay:10.37,2013-03-04 04:42:00,
2013-03-03 20:47:00,48.6,43.7,30.08,WNW,298,0.0,0.0,83,0.00,CLR,,0.00,0.0,WeatherDisplay:10.37,2013-03-04 04:47:00,
2013-03-03 20:52:00,48.6,44.0,30.09,WNW,298,0.0,0.0,84,0.00,CLR,,0.00,0.0,WeatherDisplay:10.37,2013-03-04 04:52:00,
2013-03-03 20:57:00,48.5,43.9,30.09,WNW,298,0.0,0.0,84,0.00,CLR,,0.00,0.0,WeatherDisplay:10.37,2013-03-04 04:57:00,
2013-03-03 21:00:00,48.5,43.6,30.09,WNW,298,0.0,0.0,83,0.00,CLR,,0.00,0.0,WeatherDisplay:10.37,2013-03-04 05:00:00,
2013-03-03 21:01:00,48.5,43.9,30.09,WNW,298,1.2,1.2,84,0.00,CLR,,0.00,0.0,WeatherDisplay:10.37,2013-03-04 05:01:00,
2013-03-03 21:06:00,48.4,43.8,30.09,WNW,298,0.0,0.0,84,0.00,CLR,,0.00,0.0,WeatherDisplay:10.37,2013-03-04 05:06:00,
2013-03-03 21:11:00,48.3,43.7,30.10,WNW,298,0.0,0.0,84,0.00,CLR,,0.00,0.0,WeatherDisplay:10.37,2013-03-04 05:11:00,
2013-03-03 21:16:00,48.2,43.6,30.10,WNW,298,0.0,0.0,84,0.00,CLR,,0.00,0.0,WeatherDisplay:10.37,2013-03-04 05:16:00,
2013-03-03 21:21:00,48.2,43.6,30.09,WNW,298,0.0,0.0,84,0.00,CLR,,0.00,0.0,WeatherDisplay:10.37,2013-03-04 05:21:00,
2013-03-03 21:26:00,48.1,43.5,30.10,WNW,298,0.0,0.0,84,0.00,CLR,,0.00,0.0,WeatherDisplay:10.37,2013-03-04 05:26:00,
2013-03-03 21:31:00,48.2,43.9,30.10,WNW,298,0.0,0.0,85,0.00,CLR,,0.00,0.0,WeatherDisplay:10.37,2013-03-04 05:31:00,
2013-03-03 21:36:00,48.2,43.9,30.10,WNW,298,3.5,3.5,85,0.00,CLR,,0.00,0.0,WeatherDisplay:10.37,2013-03-04 05:36:00,
2013-03-03 21:41:00,48.3,44.0,30.10,WNW,298,1.2,1.2,85,0.00,CLR,,0.00,0.0,WeatherDisplay:10.37,2013-03-04 05:41:00,
2013-03-03 21:46:00,48.3,44.0,30.10,WNW,288,3.5,3.5,85,0.00,CLR,,0.00,0.0,WeatherDisplay:10.37,2013-03-04 05:46:00,
2013-03-03 21:51:00,48.3,44.0,30.10,WNW,287,1.2,0.0,85,0.00,CLR,,0.00,0.0,WeatherDisplay:10.37,2013-03-04 05:51:00,
2013-03-03 21:56:00,48.3,43.7,30.10,WNW,288,2.3,2.3,84,0.00,CLR,,0.00,0.0,WeatherDisplay:10.37,2013-03-04 05:56:00,
2013-03-03 22:01:00,48.3,43.7,30.10,WNW,288,2.3,2.3,84,0.00,,,0.00,0.0,WeatherDisplay:10.37,2013-03-04 06:01:00,
2013-03-03 22:06:00,48.4,43.8,30.10,WNW,288,2.3,2.3,84,0.00,,,0.00,0.0,WeatherDisplay:10.37,2013-03-04 06:06:00,
2013-03-03 22:11:00,48.4,43.8,30.10,WNW,287,1.2,1.2,84,0.00,,,0.00,0.0,WeatherDisplay:10.37,2013-03-04 06:11:00,
2013-03-03 22:16:00,48.5,43.9,30.10,WNW,288,1.2,1.2,84,0.00,,,0.00,0.0,WeatherDisplay:10.37,2013-03-04 06:16:00,
2013-03-03 22:21:00,48.5,43.6,30.10,WNW,288,3.5,3.5,83,0.00,,,0.00,0.0,WeatherDisplay:10.37,2013-03-04 06:21:00,
2013-03-03 22:26:00,48.5,43.6,30.10,WNW,288,2.3,2.3,83,0.00,,,0.00,0.0,WeatherDisplay:10.37,2013-03-04 06:26:00,
2013-03-03 22:31:00,48.6,43.7,30.10,WNW,288,0.0,0.0,83,0.00,,,0.00,0.0,WeatherDisplay:10.37,2013-03-04 06:31:00,
2013-03-03 22:36:00,48.6,43.7,30.10,WNW,288,2.3,2.3,83,0.00,,,0.00,0.0,WeatherDisplay:10.37,2013-03-04 06:36:00,
2013-03-03 22:41:00,48.6,43.7,30.11,WNW,288,1.2,1.2,83,0.00,,,0.00,0.0,WeatherDisplay:10.37,2013-03-04 06:41:00,
2013-03-03 22:46:00,48.4,43.5,30.11,WNW,287,2.3,2.3,83,0.00,CLR,,0.00,0.0,WeatherDisplay:10.37,2013-03-04 06:46:00,
2013-03-03 22:51:00,48.3,43.4,30.11,WNW,288,3.5,3.5,83,0.00,,,0.00,0.0,WeatherDisplay:10.37,2013-03-04 06:51:00,
2013-03-03 22:56:00,48.3,43.4,30.11,WNW,288,0.0,0.0,83,0.00,,,0.00,0.0,WeatherDisplay:10.37,2013-03-04 06:56:00,
2013-03-03 23:01:00,48.3,43.4,30.11,WNW,288,0.0,0.0,83,0.00,,,0.00,0.0,WeatherDisplay:10.37,2013-03-04 07:01:00,
2013-03-03 23:06:00,48.3,43.4,30.10,WNW,287,0.0,0.0,83,0.00,,,0.00,0.0,WeatherDisplay:10.37,2013-03-04 07:06:00,
2013-03-03 23:11:00,48.3,43.4,30.11,WNW,287,1.2,1.2,83,0.00,,,0.00,0.0,WeatherDisplay:10.37,2013-03-04 07:11:00,
2013-03-03 23:16:00,48.3,43.4,30.11,WNW,288,1.2,1.2,83,0.00,CLR,,0.00,0.0,WeatherDisplay:10.37,2013-03-04 07:16:00,
2013-03-03 23:21:00,48.3,43.4,30.11,WNW,288,0.0,0.0,83,0.00,,,0.00,0.0,WeatherDisplay:10.37,2013-03-04 07:21:00,
2013-03-03 23:26:00,48.4,43.5,30.11,WNW,288,0.0,0.0,83,0.00,CLR,,0.00,0.0,WeatherDisplay:10.37,2013-03-04 07:26:00,
2013-03-03 23:31:00,48.4,43.5,30.11,WNW,288,0.0,0.0,83,0.00,,,0.00,0.0,WeatherDisplay:10.37,2013-03-04 07:31:00,
2013-03-03 23:36:00,48.4,43.5,30.10,WNW,288,0.0,0.0,83,0.00,CLR,,0.00,0.0,WeatherDisplay:10.37,2013-03-04 07:36:00,
2013-03-03 23:41:00,48.4,43.5,30.10,WNW,287,0.0,0.0,83,0.00,,,0.00,0.0,WeatherDisplay:10.37,2013-03-04 07:41:00,
2013-03-03 23:46:00,48.4,43.5,30.10,WNW,288,0.0,0.0,83,0.00,,,0.00,0.0,WeatherDisplay:10.37,2013-03-04 07:46:00,
2013-03-03 23:51:00,48.4,43.5,30.10,WNW,288,0.0,0.0,83,0.00,,,0.00,0.0,WeatherDisplay:10.37,2013-03-04 07:51:00,
2013-03-03 23:56:00,48.4,43.5,30.10,WNW,288,0.0,0.0,83,0.00,,,0.00,0.0,WeatherDisplay:10.37,2013-03-04 07:56:00,